QPF
0.00 0.00 0.00 0.00 0.00 0.00 0.00 0.00 0.00 0.00 0.00 0.00 0.00 0.00 0.00 0.00 0.00 0.00 0.00 0.00 0.00 0.00 0.00 0.00 0.00 0.00 0.00 0.00 0.00 0.00 0.00 0.00 0.00 0.00 0.00 0.00 0.00 0.00 0.00 0.00 0.00 0.01 0.00 0.02
0.00 0.00 0.00 0.00 0.00 0.00 0.00 0.00 0.00 0.00 0.00 0.00 0.00 0.00 0.00 0.00 0.00 0.00 0.00 0.00 0.00 0.00 0.00 0.00 0.00 0.00 0.00 0.00 0.00 0.00 0.00 0.00 0.00 0.00 0.00 0.00 0.00 0.00 0.00 0.01 0.04 0.06 0.06 0.01
0.00 0.00 0.00 0.00 0.00 0.00 0.00 0.00 0.00 0.00 0.00 0.00 0.00 0.00 0.00 0.00 0.00 0.00 0.00 0.00 0.00 0.00 0.00 0.00 0.00 0.00 0.00 0.00 0.00 0.00 0.00 0.00 0.00 0.00 0.00 0.00 0.00 0.00 0.00 0.01 0.06 0.08 0.06 0.00
0.00 0.00 0.00 0.00 0.00 0.00 0.00 0.00 0.00 0.00 0.00 0.00 0.00 0.00 0.00 0.00 0.00 0.00 0.00 0.00 0.00 0.00 0.00 0.00 0.00 0.00 0.00 0.00 0.00 0.00 0.00 0.00 0.00 0.00 0.00 0.00 0.00 0.00 0.00 0.00 0.00 0.01 0.00 0.00
0.00 0.00 0.00 0.00 0.00 0.00 0.00 0.00 0.00 0.00 0.00 0.00 0.00 0.00 0.00 0.00 0.00 0.00 0.00 0.00 0.00 0.00 0.00 0.00 0.00 0.00 0.00 0.00 0.00 0.00 0.00 0.00 0.00 0.00 0.00 0.00 0.00 0.00 0.00 0.00 0.00 0.00 0.00 0.00
0.00 0.00 0.00 0.00 0.00 0.00 0.00 0.00 0.00 0.00 0.00 0.00 0.00 0.00 0.00 0.00 0.00 0.00 0.00 0.00 0.00 0.00 0.00 0.00 0.00 0.00 0.00 0.00 0.00 0.00 0.00 0.00 0.00 0.00 0.00 0.00 0.00 0.00 0.00 0.00 0.00 0.00 0.00 0.00
0.00 0.00 0.00 0.00 0.00 0.00 0.00 0.00 0.00 0.00 0.00 0.00 0.00 0.00 0.00 0.00 0.00 0.00 0.00 0.00 0.00 0.00 0.00 0.00 0.00 0.00 0.00 0.00 0.00 0.00 0.00 0.00 0.00 0.00 0.00 0.00 0.00 0.00 0.00 0.00 0.00 0.00 0.00 0.00
0.01 0.00 0.00 0.00 0.00 0.00 0.00 0.00 0.00 0.00 0.00 0.00 0.00 0.00 0.00 0.00 0.00 0.00 0.00 0.00 0.00 0.00 0.00 0.00 0.00 0.00 0.00 0.00 0.00 0.00 0.00 0.00 0.00 0.00 0.00 0.00 0.00 0.00 0.00 0.00 0.00 0.00 0.00 0.00
0.01 0.00 0.00 0.00 0.00 0.00 0.00 0.00 0.00 0.00 0.00 0.00 0.00 0.00 0.00 0.00 0.00 0.00 0.00 0.00 0.00 0.00 0.00 0.00 0.00 0.00 0.00 0.00 0.00 0.00 0.00 0.00 0.00 0.00 0.00 0.00 0.00 0.00 0.00 0.00 0.00 0.00 0.00 0.00
0.00 0.00 0.00 0.00 0.00 0.00 0.00 0.00 0.00 0.00 0.00 0.00 0.00 0.00 0.00 0.00 0.00 0.00 0.00 0.00 0.00 0.00 0.00 0.00 0.00 0.00 0.00 0.00 0.00 0.00 0.00 0.00 0.00 0.00 0.00 0.00 0.00 0.00 0.00 0.00 0.00 0.00 0.00 0.00
0.00 0.00 0.00 0.00 0.00 0.00 0.00 0.00 0.00 0.00 0.00 0.00 0.00 0.00 0.00 0.00 0.00 0.00 0.00 0.00 0.00 0.00 0.00 0.00 0.00 0.00 0.00 0.00 0.00 0.00 0.00 0.00 0.00 0.00 0.00 0.00 0.00 0.00 0.00 0.00 0.00 0.00 0.00 0.00
0.00 0.00 0.00 0.00 0.00 0.00 0.00 0.00 0.00 0.00 0.00 0.00 0.00 0.00 0.00 0.00 0.00 0.00 0.00 0.00 0.00 0.00 0.00 0.00 0.00 0.00 0.00 0.00 0.00 0.00 0.00 0.00 0.00 0.00 0.00 0.00 0.00 0.00 0.00 0.00 0.00 0.00 0.00 0.00
0.00 0.00 0.00 0.00 0.00 0.00 0.00 0.00 0.00 0.00 0.00 0.00 0.00 0.00 0.00 0.00 0.00 0.00 0.00 0.00 0.00 0.00 0.00 0.00 0.00 0.00 0.00 0.00 0.00 0.00 0.00 0.00 0.00 0.00 0.00 0.00 0.00 0.00 0.00 0.00 0.00 0.00 0.00 0.00
0.02 0.00 0.00 0.00 0.00 0.00 0.00 0.01 0.00 0.00 0.00 0.00 0.00 0.00 0.00 0.00 0.00 0.00 0.00 0.00 0.00 0.00 0.00 0.00 0.00 0.00 0.00 0.00 0.00 0.00 0.00 0.00 0.00 0.00 0.00 0.00 0.00 0.00 0.00 0.00 0.00 0.00 0.00 0.00
0.00 0.00 0.00 0.01 0.01 0.00 0.00 0.00 0.00 0.00 0.00 0.00 0.00 0.00 0.00 0.00 0.00 0.00 0.00 0.00 0.00 0.00 0.00 0.00 0.00 0.00 0.00 0.00 0.00 0.00 0.00 0.00 0.00 0.00 0.00 0.00 0.00 0.00 0.00 0.00 0.00 0.00 0.00 0.00
0.00 0.00 0.01 0.03 0.02 0.00 0.00 0.00 0.00 0.00 0.00 0.00 0.00 0.00 0.00 0.00 0.00 0.00 0.00 0.00 0.00 0.00 0.00 0.00 0.00 0.00 0.00 0.00 0.00 0.00 0.00 0.00 0.00 0.00 0.00 0.00 0.00 0.00 0.00 0.00 0.00 0.00 0.00 0.00
0.00 0.00 0.01 0.00 0.01 0.05 0.02 0.00 0.00 0.00 0.00 0.00 0.00 0.00 0.00 0.00 0.00 0.00 0.00 0.00 0.00 0.00 0.00 0.00 0.00 0.00 0.00 0.00 0.00 0.00 0.00 0.00 0.00 0.00 0.00 0.00 0.00 0.00 0.00 0.00 0.00 0.00 0.00 0.00
0.00 0.00 0.01 0.02 0.04 0.07 0.06 0.06 0.01 0.01 0.00 0.01 0.00 0.00 0.00 0.00 0.00 0.00 0.01 0.02 0.00 0.00 0.00 0.00 0.00 0.00 0.00 0.00 0.00 0.00 0.00 0.00 0.00 0.00 0.00 0.00 0.00 0.00 0.00 0.00 0.00 0.00 0.00 0.00
0.00 0.00 0.02 0.14 0.29 0.12 0.12 0.05 0.02 0.01 0.03 0.05 0.00 0.00 0.00 0.00 0.00 0.01 0.08 0.05 0.02 0.00 0.00 0.00 0.00 0.00 0.00 0.00 0.00 0.00 0.00 0.00 0.00 0.00 0.00 0.00 0.00 0.00 0.00 0.00 0.00 0.00 0.00 0.00
0.00 0.00 0.01 0.03 0.14 0.16 0.03 0.01 0.00 0.01 0.03 0.05 0.01 0.00 0.00 0.00 0.04 0.07 0.07 0.08 0.06 0.02 0.00 0.00 0.00 0.00 0.00 0.00 0.00 0.00 0.00 0.00 0.00 0.00 0.00 0.00 0.00 0.00 0.00 0.00 0.00 0.00 0.00 0.00
0.09 0.05 0.02 0.04 0.12 0.06 0.16 0.13 0.04 0.01 0.04 0.04 0.05 0.02 0.00 0.00 0.03 0.13 0.07 0.08 0.03 0.01 0.00 0.00 0.00 0.00 0.00 0.00 0.00 0.00 0.00 0.00 0.00 0.00 0.00 0.00 0.00 0.00 0.00 0.00 0.00 0.00 0.00 0.00
0.19 0.16 0.14 0.10 0.16 0.19 0.39 0.28 0.09 0.03 0.08 0.13 0.04 0.03 0.02 0.00 0.01 0.05 0.05 0.06 0.02 0.01 0.00 0.00 0.00 0.00 0.00 0.00 0.00 0.00 0.00 0.00 0.00 0.00 0.00 0.00 0.00 0.00 0.00 0.00 0.00 0.00 0.00 0.00
0.16 0.23 0.23 0.23 0.30 0.43 0.51 0.47 0.22 0.10 0.18 0.22 0.02 0.02 0.02 0.01 0.01 0.02 0.05 0.05 0.01 0.00 0.00 0.00 0.00 0.00 0.00 0.00 0.00 0.00 0.00 0.00 0.00 0.00 0.00 0.00 0.00 0.00 0.00 0.00 0.00 0.00 0.00 0.00
0.01 0.04 0.07 0.10 0.16 0.31 0.47 0.27 0.24 0.23 0.35 0.24 0.02 0.02 0.01 0.00 0.01 0.02 0.08 0.05 0.01 0.02 0.01 0.00 0.00 0.00 0.00 0.00 0.00 0.00 0.00 0.00 0.00 0.00 0.00 0.00 0.00 0.00 0.00 0.00 0.00 0.00 0.00 0.00
0.00 0.00 0.01 0.02 0.04 0.12 0.27 0.32 0.42 0.44 0.36 0.24 0.03 0.01 0.00 0.01 0.02 0.02 0.04 0.07 0.04 0.04 0.04 0.02 0.00 0.00 0.01 0.00 0.00 0.00 0.00 0.00 0.00 0.00 0.00 0.00 0.00 0.00 0.00 0.00 0.00 0.00 0.00 0.00
0.00 0.00 0.02 0.01 0.01 0.05 0.19 0.29 0.47 0.57 0.44 0.12 0.01 0.00 0.00 0.01 0.04 0.02 0.03 0.05 0.07 0.05 0.01 0.00 0.00 0.00 0.01 0.01 0.00 0.00 0.00 0.00 0.00 0.00 0.00 0.00 0.00 0.00 0.00 0.00 0.00 0.00 0.00 0.00
MSLP
1007.82 1007.99 1006.89 1006.38 1006.77 1006.92 1006.86 1006.64 1006.35 1005.47 1004.69 1004.29 1003.44 1001.60 1001.29 1001.54 1001.15 1000.52 1000.03 999.70 999.27 998.98 998.75 998.38 998.03 997.65 997.66 997.51 997.70 997.73 998.06 998.45 999.33 1000.32 1001.04 1001.74 1001.92 1002.40 1003.14 1003.68 1004.05 1004.33 1004.90 1005.55
1008.21 1006.61 1007.07 1006.91 1007.08 1007.23 1007.25 1007.04 1006.80 1006.28 1005.52 1004.88 1003.72 1002.44 1001.33 1000.98 1000.31 999.87 999.44 999.12 998.87 998.65 998.24 998.00 997.66 997.33 997.35 997.04 996.81 997.12 997.38 998.07 998.59 999.27 1000.05 1000.65 1001.57 1002.42 1002.71 1003.38 1003.76 1003.95 1004.34 1005.08
1008.40 1007.33 1006.96 1007.12 1007.11 1007.16 1007.12 1006.98 1007.01 1006.87 1006.10 1004.91 1004.58 1002.31 1001.15 1000.16 999.62 999.21 998.68 998.28 998.10 997.86 997.82 997.61 997.29 997.03 996.82 996.68 996.56 996.61 996.97 997.52 998.40 999.35 999.95 1000.57 1001.42 1002.33 1003.06 1003.55 1003.78 1004.15 1004.51 1004.89
1007.93 1007.10 1006.85 1006.78 1006.69 1007.06 1006.73 1007.03 1006.98 1006.85 1006.93 1006.12 1005.15 1002.18 1000.93 999.81 998.77 998.50 998.37 997.67 997.33 997.10 997.12 997.05 996.93 996.65 996.22 996.02 996.48 996.86 997.19 997.79 998.51 999.00 999.66 1000.44 1000.72 1002.01 1002.62 1003.13 1003.58 1004.15 1004.59 1005.08
1007.46 1006.91 1006.58 1006.38 1006.27 1006.42 1006.38 1006.86 1007.01 1007.08 1007.14 1006.67 1005.79 1005.07 997.41 998.92 997.99 997.14 996.96 996.91 996.23 996.22 996.49 996.43 996.27 996.23 996.00 996.14 996.74 997.23 997.85 998.03 998.63 998.83 999.42 1000.41 1001.26 1001.89 1002.50 1003.24 1003.92 1004.43 1004.84 1005.22
1007.01 1006.56 1006.24 1006.03 1005.99 1006.12 1006.28 1006.59 1006.86 1007.27 1007.66 1006.76 1005.37 1005.33 997.52 998.11 996.70 996.25 996.43 996.32 996.03 995.91 996.03 995.94 995.76 995.75 996.09 996.32 996.76 997.31 997.84 998.39 998.87 999.19 999.74 1000.40 1001.30 1002.16 1002.93 1003.57 1004.07 1004.59 1004.97 1005.33
1006.82 1006.40 1005.83 1005.58 1005.88 1005.81 1006.24 1006.83 1007.33 1008.01 1007.75 1005.40 1004.33 1004.07 997.66 997.33 996.58 996.37 996.14 995.83 995.70 995.63 995.78 995.65 995.86 996.14 996.49 996.82 997.37 997.62 998.09 998.87 999.23 999.63 1000.24 1000.85 1001.47 1002.06 1002.66 1003.41 1004.06 1004.73 1005.22 1005.67
1007.65 1006.48 1005.44 1005.00 1005.15 1005.40 1005.76 1006.62 1006.83 1006.82 1006.48 1005.43 1004.46 1001.19 997.76 996.35 995.60 995.20 995.23 995.25 995.23 995.26 995.44 995.54 995.84 996.41 996.67 997.07 997.67 998.06 998.53 999.17 999.59 1000.14 1000.86 1001.36 1001.82 1002.30 1002.86 1003.41 1003.99 1004.55 1005.11 1005.42
1008.11 1006.57 1005.40 1005.11 1004.90 1005.23 1005.52 1006.10 1006.08 1006.68 1006.22 1005.88 1002.91 999.71 997.72 995.99 995.40 995.26 994.82 995.02 995.12 995.18 995.53 995.95 996.39 996.67 997.07 997.69 998.19 998.46 998.92 999.62 1000.09 1000.68 1001.38 1001.93 1002.20 1002.58 1003.21 1003.74 1004.08 1004.67 1004.98 1005.25
1008.45 1007.72 1006.59 1005.76 1005.24 1005.13 1005.17 1005.53 1006.32 1006.66 1006.36 1005.24 1002.25 999.95 996.86 995.42 994.77 995.54 995.29 995.26 995.10 995.47 996.01 996.45 996.82 997.10 997.64 998.12 998.51 998.72 999.37 1000.07 1000.63 1001.21 1001.77 1002.19 1002.53 1002.97 1003.42 1003.87 1004.44 1004.82 1005.11 1005.18
1008.89 1008.59 1007.84 1006.82 1006.05 1005.76 1005.77 1005.74 1006.01 1006.04 1005.78 1004.42 1002.52 998.48 996.26 996.08 995.52 995.64 994.74 994.61 994.91 995.55 996.08 996.57 997.22 997.56 997.99 998.59 998.94 999.38 999.80 1000.47 1001.14 1001.57 1002.08 1002.50 1002.93 1003.24 1003.65 1004.15 1004.54 1004.83 1005.00 1005.18
1009.43 1009.49 1008.89 1007.47 1006.29 1005.84 1006.05 1005.93 1006.04 1006.10 1005.58 1004.20 1002.72 998.38 995.95 995.86 995.79 995.71 994.76 994.15 994.42 995.41 996.41 996.95 997.69 997.87 998.40 999.01 999.24 999.78 1000.39 1000.78 1001.33 1001.81 1002.32 1002.79 1003.13 1003.45 1003.93 1004.33 1004.58 1004.78 1005.06 1005.27
1009.87 1009.93 1009.48 1007.91 1006.92 1006.69 1006.70 1006.40 1006.18 1006.10 1005.75 1004.14 1002.89 998.63 996.34 996.80 996.43 995.74 995.44 995.44 995.48 995.53 996.69 997.23 997.94 998.20 998.67 999.15 999.68 1000.12 1000.57 1001.10 1001.58 1001.96 1002.52 1003.00 1003.34 1003.71 1004.09 1004.42 1004.64 1004.86 1005.00 1005.28
1010.00 1010.23 1009.74 1009.59 1008.88 1008.36 1007.74 1006.91 1006.31 1006.09 1005.52 1003.91 1000.91 1000.07 996.62 997.79 997.33 996.50 995.87 995.73 996.23 996.04 996.81 997.32 998.01 998.35 998.84 999.30 999.87 1000.32 1000.80 1001.11 1001.61 1002.08 1002.62 1003.09 1003.56 1003.89 1004.19 1004.45 1004.69 1004.90 1005.03 1005.22
1009.91 1010.13 1009.90 1009.33 1008.92 1008.48 1007.74 1006.95 1006.16 1005.55 1004.73 1003.84 1001.50 1000.21 997.81 998.16 997.54 996.65 995.72 995.82 996.20 996.94 996.72 997.32 997.87 998.42 998.92 999.47 1000.01 1000.45 1000.81 1001.22 1001.62 1002.20 1002.73 1003.26 1003.70 1004.02 1004.29 1004.57 1004.64 1004.85 1004.90 1004.98
1009.96 1009.97 1009.64 1009.07 1008.64 1007.91 1006.98 1005.94 1005.30 1004.46 1003.72 1002.80 1001.82 999.56 998.79 997.80 997.00 996.32 995.27 995.35 995.74 996.61 996.83 996.97 997.60 998.22 998.80 999.33 999.93 1000.42 1000.85 1001.23 1001.61 1002.13 1002.77 1003.20 1003.61 1004.05 1004.36 1004.64 1004.74 1004.82 1004.88 1005.12
1009.97 1010.06 1009.86 1008.57 1007.66 1007.24 1005.41 1003.01 1003.15 1002.84 1002.62 1002.00 1001.11 999.62 998.44 997.70 996.99 996.68 995.66 994.98 994.96 995.61 996.39 996.38 997.16 997.96 998.65 999.17 999.67 1000.34 1000.68 1001.09 1001.61 1002.02 1002.60 1003.04 1003.56 1003.99 1004.42 1004.73 1004.92 1004.97 1005.19 1005.42
1009.28 1009.48 1009.62 1008.15 1007.71 1006.29 1003.02 1002.20 1001.87 1001.94 1001.54 1001.13 1000.47 999.68 999.01 997.40 997.08 996.46 996.01 995.43 995.49 995.61 996.58 996.09 996.76 997.72 998.54 999.11 999.65 1000.22 1000.65 1001.11 1001.57 1001.92 1002.41 1002.97 1003.47 1003.91 1004.50 1004.87 1005.13 1005.33 1005.58 1005.69
1008.04 1008.85 1008.74 1008.16 1006.94 1005.42 1003.70 1003.60 1003.49 1002.90 1001.46 1001.32 1000.62 999.81 998.79 997.65 997.22 996.50 996.03 995.90 996.07 995.51 996.08 996.45 996.22 997.26 998.25 998.97 999.58 1000.14 1000.77 1001.13 1001.62 1001.91 1002.32 1002.90 1003.43 1003.93 1004.44 1004.90 1005.28 1005.52 1005.76 1006.10
1006.71 1007.46 1007.93 1007.55 1006.94 1005.42 1004.60 1004.51 1004.37 1003.71 1002.32 1001.45 1000.62 999.73 998.99 998.16 997.58 996.56 995.97 995.83 995.93 995.99 995.77 996.33 996.45 997.26 998.09 998.87 999.47 1000.08 1000.69 1001.10 1001.56 1001.76 1002.24 1002.78 1003.30 1003.75 1004.26 1004.71 1005.22 1005.48 1005.78 1006.14
1007.11 1007.41 1007.13 1007.17 1007.06 1005.90 1005.31 1005.18 1004.65 1003.76 1002.90 1001.50 1000.59 999.60 998.80 997.86 997.12 996.51 995.60 995.66 995.76 995.59 995.68 996.08 996.70 997.12 997.75 998.62 999.37 1000.01 1000.50 1001.00 1001.14 1001.55 1002.19 1002.73 1003.20 1003.60 1004.11 1004.67 1005.13 1005.44 1005.92 1006.38
1007.61 1007.27 1006.71 1006.62 1006.59 1006.14 1005.80 1005.08 1004.04 1003.49 1002.32 1001.69 1000.74 1000.00 999.03 997.76 996.71 996.34 995.22 994.59 995.00 995.15 995.37 995.90 996.68 997.27 997.75 998.44 999.10 999.84 1000.34 1000.50 1001.06 1001.48 1002.17 1002.70 1003.23 1003.76 1004.31 1004.77 1005.20 1005.56 1005.98 1006.53
1007.82 1007.60 1007.21 1007.03 1006.51 1006.54 1005.85 1004.87 1003.92 1003.01 1002.44 1002.02 1001.39 999.88 999.05 997.83 997.12 996.65 996.74 996.83 996.58 995.12 995.28 995.60 996.33 997.10 997.76 998.35 998.73 999.57 999.98 1000.59 1001.02 1001.55 1002.28 1002.86 1003.47 1003.85 1004.37 1004.96 1005.34 1005.78 1006.15 1006.63
1007.87 1007.30 1006.96 1006.54 1006.04 1005.52 1004.75 1004.19 1002.82 1002.02 1002.20 1001.22 1000.57 999.45 998.66 997.08 997.13 996.98 997.94 997.59 996.56 995.54 995.33 995.49 996.31 996.88 997.73 998.32 998.62 998.92 999.80 1000.50 1001.01 1001.69 1002.39 1003.05 1003.62 1004.18 1004.65 1005.19 1005.48 1005.75 1006.18 1006.63
1008.34 1007.70 1007.09 1006.41 1005.84 1005.01 1004.57 1004.18 1003.63 1002.58 1001.30 1000.12 999.71 998.92 997.82 997.06 997.18 997.33 997.52 997.88 996.50 995.97 996.43 995.95 996.07 996.63 997.31 997.93 998.47 998.96 999.60 1000.30 1001.08 1001.76 1002.40 1003.13 1003.77 1004.34 1004.96 1005.48 1005.93 1005.92 1006.01 1006.20
1008.36 1007.77 1007.31 1006.92 1006.06 1005.70 1005.28 1004.97 1004.24 1003.78 1002.36 1000.83 999.88 998.99 998.33 997.69 997.50 997.70 998.19 998.02 996.85 997.32 996.47 996.08 996.56 996.64 997.10 997.77 998.48 999.09 999.56 1000.14 1000.99 1001.85 1002.52 1003.04 1003.79 1004.47 1005.01 1005.67 1006.26 1006.27 1006.19 1006.34
Thickness
5591 5582 5608 5635 5635 5632 5634 5633 5633 5653 5671 5674 5677 5698 5713 5716 5720 5729 5741 5749 5755 5762 5770 5780 5785 5791 5790 5792 5791 5789 5785 5780 5771 5761 5755 5748 5747 5743 5736 5732 5728 5723 5715 5707
5565 5588 5611 5615 5610 5612 5616 5614 5619 5636 5651 5656 5669 5675 5699 5709 5719 5731 5737 5742 5749 5756 5767 5773 5778 5784 5786 5791 5791 5786 5783 5775 5770 5764 5758 5751 5743 5736 5734 5728 5724 5720 5715 5705
5542 5580 5593 5589 5589 5597 5601 5603 5613 5617 5635 5650 5650 5661 5687 5710 5718 5728 5735 5743 5748 5753 5760 5765 5773 5778 5782 5783 5785 5784 5777 5773 5765 5755 5750 5745 5739 5731 5724 5719 5716 5710 5705 5699
5530 5562 5567 5567 5577 5583 5584 5605 5614 5615 5612 5612 5649 5636 5677 5707 5718 5726 5728 5742 5750 5757 5760 5763 5769 5774 5779 5784 5779 5774 5770 5764 5757 5751 5744 5740 5739 5728 5722 5716 5710 5703 5697 5689
5532 5541 5546 5552 5567 5577 5586 5592 5601 5605 5604 5609 5621 5605 5713 5711 5710 5730 5741 5743 5755 5761 5761 5763 5769 5770 5775 5776 5769 5764 5758 5756 5750 5748 5745 5736 5728 5723 5716 5708 5699 5693 5688 5683
5525 5532 5536 5548 5558 5567 5581 5582 5589 5591 5585 5573 5624 5611 5694 5700 5722 5731 5733 5734 5743 5752 5757 5761 5767 5770 5768 5767 5762 5757 5753 5748 5745 5743 5738 5731 5723 5714 5706 5698 5692 5686 5681 5675
5513 5519 5537 5544 5540 5555 5563 5557 5551 5551 5552 5598 5634 5620 5691 5706 5717 5723 5725 5734 5745 5754 5755 5761 5761 5758 5757 5754 5750 5748 5746 5740 5738 5734 5729 5724 5717 5711 5704 5695 5688 5680 5673 5668
5495 5508 5527 5544 5540 5544 5548 5547 5543 5556 5568 5600 5629 5634 5679 5716 5729 5735 5739 5743 5749 5752 5758 5758 5755 5751 5750 5747 5742 5740 5738 5734 5731 5726 5719 5715 5710 5705 5698 5692 5684 5678 5671 5666
5499 5514 5533 5538 5542 5545 5546 5539 5570 5560 5579 5582 5622 5658 5688 5717 5727 5730 5738 5742 5744 5751 5748 5747 5746 5746 5742 5737 5734 5734 5732 5726 5723 5718 5711 5706 5703 5699 5691 5685 5680 5672 5668 5664
5499 5499 5516 5527 5536 5542 5543 5556 5541 5541 5559 5575 5614 5638 5668 5702 5725 5720 5726 5734 5741 5742 5739 5741 5740 5739 5735 5731 5729 5729 5725 5719 5715 5709 5704 5700 5695 5690 5685 5679 5672 5667 5663 5661
5492 5492 5505 5517 5520 5523 5530 5533 5542 5554 5562 5578 5601 5636 5680 5695 5713 5709 5726 5742 5739 5737 5736 5737 5733 5731 5729 5725 5723 5719 5717 5712 5705 5702 5697 5693 5688 5685 5679 5672 5667 5664 5661 5658
5484 5473 5477 5506 5520 5529 5525 5531 5535 5537 5564 5586 5594 5636 5690 5695 5703 5706 5726 5744 5740 5736 5731 5730 5724 5725 5722 5718 5718 5713 5709 5705 5700 5696 5691 5687 5683 5679 5672 5667 5663 5662 5658 5655
5474 5466 5471 5492 5511 5513 5513 5525 5532 5536 5547 5569 5579 5625 5683 5680 5685 5702 5714 5722 5727 5732 5726 5723 5719 5719 5717 5714 5711 5707 5704 5699 5695 5692 5687 5681 5677 5673 5667 5663 5661 5658 5656 5654
5477 5468 5476 5471 5485 5493 5493 5511 5524 5528 5528 5568 5606 5616 5673 5666 5667 5689 5707 5714 5715 5723 5720 5718 5715 5715 5713 5710 5707 5703 5699 5696 5692 5689 5683 5678 5672 5667 5663 5660 5658 5657 5655 5653
5470 5465 5472 5479 5484 5483 5488 5499 5513 5522 5542 5553 5594 5601 5656 5653 5669 5685 5702 5707 5709 5708 5716 5715 5713 5711 5709 5706 5703 5700 5696 5693 5690 5685 5679 5673 5668 5664 5660 5657 5657 5655 5655 5654
5460 5461 5478 5480 5482 5483 5484 5501 5514 5528 5547 5565 5582 5610 5642 5658 5673 5687 5703 5708 5708 5706 5711 5716 5714 5711 5708 5705 5701 5697 5694 5691 5688 5683 5677 5672 5667 5660 5657 5654 5654 5653 5654 5652
5455 5462 5462 5473 5497 5483 5496 5523 5529 5542 5554 5568 5577 5615 5638 5649 5665 5676 5694 5709 5712 5713 5712 5718 5714 5711 5707 5704 5702 5694 5694 5691 5686 5683 5677 5671 5664 5659 5655 5652 5651 5651 5649 5648
5462 5459 5458 5476 5476 5477 5526 5529 5543 5547 5563 5572 5587 5616 5627 5648 5662 5677 5687 5701 5705 5711 5707 5718 5716 5711 5706 5703 5700 5696 5693 5689 5685 5682 5676 5669 5664 5660 5655 5651 5648 5646 5645 5646
5477 5467 5468 5471 5483 5500 5520 5511 5515 5529 5556 5561 5579 5606 5618 5645 5658 5673 5682 5692 5695 5708 5709 5712 5720 5714 5708 5702 5699 5695 5690 5688 5683 5680 5675 5669 5665 5660 5655 5650 5647 5644 5643 5641
5494 5484 5476 5480 5480 5502 5512 5503 5510 5521 5543 5558 5584 5596 5613 5631 5642 5662 5683 5691 5694 5698 5709 5710 5716 5713 5708 5702 5699 5694 5689 5686 5682 5681 5676 5671 5666 5662 5657 5652 5647 5645 5642 5641
5488 5480 5481 5482 5484 5503 5497 5493 5503 5535 5549 5560 5577 5599 5613 5631 5649 5667 5684 5692 5697 5703 5708 5710 5711 5711 5710 5702 5698 5693 5689 5685 5687 5684 5679 5673 5667 5663 5659 5653 5649 5646 5642 5638
5482 5483 5499 5495 5503 5512 5486 5494 5528 5531 5546 5557 5576 5591 5608 5633 5655 5670 5685 5696 5700 5706 5709 5711 5708 5708 5707 5704 5699 5692 5688 5691 5688 5685 5679 5674 5668 5665 5658 5653 5648 5645 5641 5638
5484 5478 5480 5484 5492 5475 5476 5484 5513 5530 5543 5556 5569 5590 5607 5632 5652 5664 5665 5669 5678 5704 5709 5714 5710 5707 5706 5703 5702 5693 5692 5689 5688 5684 5678 5673 5668 5664 5658 5652 5649 5645 5641 5637
5484 5490 5489 5492 5495 5495 5499 5513 5532 5543 5549 5560 5575 5594 5614 5639 5651 5656 5653 5658 5677 5699 5707 5712 5709 5708 5703 5702 5702 5701 5694 5691 5689 5683 5678 5673 5668 5663 5659 5655 5652 5647 5642 5638
5480 5485 5487 5494 5500 5507 5509 5517 5528 5539 5557 5568 5586 5601 5619 5639 5648 5653 5656 5655 5678 5691 5693 5705 5710 5709 5705 5704 5702 5699 5697 5693 5688 5684 5680 5674 5669 5665 5660 5656 5652 5649 5646 5644
5479 5487 5488 5487 5499 5503 5508 5515 5528 5534 5551 5565 5588 5602 5617 5634 5645 5650 5646 5654 5675 5677 5693 5703 5703 5707 5707 5705 5702 5699 5698 5695 5689 5683 5680 5677 5671 5666 5663 5658 5652 5645 5647 5645